Regional Weather Roundup
Issued by NWS

Home | Current Version | Previous Version | Text Only | Print | Product List | Glossary On
Versions: 1 2 3 4 5 6 7 8 9 10 11 12 13 14 15 16 17 18 19 20 21 22 23 24 25 26 27 28 29 30 31 32 33 34 35 36 37 38 39 40 41 42 43 44 45 46 47 48 49 50
000
ASUS43 KMKX 192021
RWRWI

WISCONSIN REGIONAL WEATHER ROUNDUP
NATIONAL WEATHER SERVICE MILWAUKEE/SULLIVAN WI
200 PM CST FRI JAN 19 2018

NOTE: "FAIR" INDICATES FEW OR NO CLOUDS BELOW 12,000 FEET WITH NO
SIGNIFICANT WEATHER AND/OR OBSTRUCTIONS TO VISIBILITY.

WIZ001-002-006>008-014>016-023>028-192100-
NORTHWEST WISCONSIN

CITY           SKY/WX    TMP DP  RH WIND       PRES   REMARKS
SUPERIOR ARPT  FAIR      39  28  64 SW6       29.42F WCI  35
ASHLAND        NOT AVBL
HAYWARD        FAIR      38  24  57 S5        29.45S WCI  34
SIREN          FAIR      43  25  50 SW10      29.46S
CUMBERLAND     FAIR      36  25  64 W10       29.48R WCI  28
RICE LAKE      FAIR      37  26  65 S3        29.47F
CHETEK         FAIR      36  27  69 S6        29.47F WCI  31
LADYSMITH      FAIR      37  26  66 S8        29.47F WCI  30
EAU CLAIRE     FAIR      39  27  62 S8        29.48F WCI  33
MENOMONIE      FAIR      41  26  55 S9        29.49S
NEW RICHMOND   FAIR      39  26  58 SW14      29.48R WCI  31
OSCEOLA        FAIR      39  28  63 SW7       29.50R WCI  34
$$

WIZ003>005-009-010-017-018-192100-
NORTH CENTRAL WISCONSIN

CITY           SKY/WX    TMP DP  RH WIND       PRES   REMARKS
MANITOWISH WTR FAIR      38  25  60 S5        29.42F WCI  34
ARBOR VITAE    FAIR      39  29  65 S8        29.44F WCI  34
WOODRUFF       FAIR      39  29  65 S8        29.44F WCI  34
RHINELANDER    FAIR      37  25  61 SW12      29.48F WCI  29
EAGLE RIVER    FAIR      37  24  59 SW5       29.44F WCI  34
LAND O LAKES   CLOUDY    36  26  66 SW6       29.44F WCI  31
PHILLIPS       FAIR      39  25  57 S6        29.43F WCI  35
TOMAHAWK       FAIR      37  25  61 CALM      29.48F
MEDFORD        FAIR      33  26  73 S10       29.47F WCI  25
MERRILL        FAIR      37  26  64 S6        29.49F WCI  33
$$

WIZ029-030-035-036-043>047-192100-
CENTRAL WISCONSIN

CITY           SKY/WX    TMP DP  RH WIND       PRES   REMARKS
WAUSAU         FAIR      36  26  67 S7        29.49F WCI  30
MOSINEE        CLOUDY    36  27  69 S12       29.53F WCI  27
MARSHFIELD     FAIR      36  27  69 S13       29.49F WCI  27
STEVENS POINT  FAIR      36  25  64 S9        29.54F WCI  29
WAUPACA        FAIR      41  26  55 S8        29.57F
WAUTOMA        FAIR      38  25  59 S10       29.58F WCI  31
WISC RAPIDS    FAIR      37  24  59 SW12      29.55F WCI  29
CAMP DOUGLAS   CLOUDY    39  27  60 S12       29.55F WCI  32
$$

WIZ011>013-019>022-031-037>040-048>050-192100-
NORTHEAST WISCONSIN

CITY           SKY/WX    TMP DP  RH WIND       PRES   REMARKS
ANTIGO         FAIR      34  27  74 SW6       29.51F WCI  29
SHAWANO        FAIR      39  26  58 SW9G16    29.55F WCI  33
OCONTO         FAIR      36  25  65 SW8       29.57F WCI  30
STURGEON BAY   FAIR      36  26  67 S16       29.59F WCI  26
GREEN BAY      FAIR      35  25  66 S10       29.60F WCI  27
MANITOWOC      FAIR      38  26  62 S9        29.64F WCI  31
APPLETON       PTSUNNY   36  23  60 SW14G20   29.59F WCI  27
CLINTONVILLE   FAIR      37  27  65 SW12      29.57F WCI  30
OSHKOSH        FAIR      36  27  69 S14       29.61F WCI  27
$$

WIZ032>034-041-042-053>061-192100-
SOUTHWEST WISCONSIN

CITY           SKY/WX    TMP DP  RH WIND       PRES   REMARKS
LA CROSSE      FAIR      40  27  59 S16G23    29.55F WCI  31
SPARTA         FAIR      40  27  60 S7        29.55F
VIROQUA        FAIR      38  28  67 S13       29.56F WCI  30
BOSCOBEL       FAIR      44  26  49 S10       29.65F
PRAIRIE DU CHI FAIR      43  24  47 S6        29.63F
PLATTEVILLE    FAIR      40  29  64 S17       29.68F WCI  31
$$

WIZ056-057-062-063-064-067-068-192100-
SOUTH CENTRAL WISCONSIN

CITY           SKY/WX    TMP DP  RH WIND       PRES   REMARKS
REEDSBURG      FAIR      37  26  63 S10       29.60F WCI  30
BARABOO/DELLS  FAIR      39  25  57 SW10      29.60F WCI  32
LONE ROCK      FAIR      41  27  57 S9        29.64F
MINERAL POINT  FAIR      41  30  65 S16       29.65F
MADISON        PTSUNNY   37  25  61 S13G23    29.68F WCI  29
MIDDLETON      FAIR      41  26  55 S7        29.66F
WATERTOWN      FAIR      37  27  68 SW14      29.68S WCI  28
MONROE         FAIR      37  27  65 S15       29.69F WCI  28
JANESVILLE     MOSUNNY   37  27  65 SW14      29.92R WCI  29
$$

WIZ051-052-058>065-066-070>072-192100-
SOUTHEAST WISCONSIN

CITY           SKY/WX    TMP DP  RH WIND       PRES   REMARKS
MILWAUKEE      PTSUNNY   40  26  57 SW10G23   29.70F WCI  33
WAUKESHA       SUNNY     37  23  56 SW14G29   29.70F WCI  29
MILWAUKEE/TIMM SUNNY     39  23  52 SW14      29.69F WCI  31
RACINE         FAIR      39  26  59 SW14G24   29.72F WCI  31
BURLINGTON     FAIR      38  26  61 SW18      29.71F WCI  28
KENOSHA        FAIR      39  24  55 SW17G29   29.71F WCI  30
FOND DU LAC    FAIR      37  24  59 SW13G26   29.62F WCI  29
SHEBOYGAN      FAIR      39  27  62 SW15      29.64F WCI  31
WEST BEND      FAIR      37  27  65 SW12G18   29.66S WCI  30
JUNEAU         FAIR      35  26  68 S15       29.67F WCI  25
$$

LSZ147-162-192100-
LAKE SUPERIOR

STATION/POSITION TIME  TEMP    WIND        PRES    WAVE
                       AIR SEA DIR/SP/G            HT/PER
                 (UTC) (F)     (DEG/KT/KT) (MB)    (FT/S)
DEVILS ISLAND    1900   34     250/ 13/ 15  996.4F
SAXON HARBOR     1940   45     190/  8/ 17  995.9F
$$

LMZ867-665-643>646-192100-
LAKE MICHIGAN

STATION/POSITION TIME  TEMP    WIND        PRES    WAVE
                       AIR SEA DIR/SP/G            HT/PER
                 (UTC) (F)     (DEG/KT/KT) (MB)    (FT/S)
NORTHPORT PIER   2000   33     170/  8     1001.4
KEWAUNEE LAKESHO 2000   34     180/ 12/ 15 1002.7
SHEBOYGAN LAKESH 2000   35     170/ 16/ 16 1004.3F
PORT WASHINGTON  1930   43     240/  7/ 13 1006.1S
MILWAUKEE LAKESH 2000   40     240/ 13/ 16   N/A
KENOSHA   LAKESH 2000   40     220/ 15/ 21 1006.8
$$

TC  - TEMPERATURE IN CELSIUS
VSB - VISIBILITY IN STATUTE MILES
WCI - WIND CHILL INDEX
HX  - HEAT INDEX





USA.gov is the U.S. government's official web portal to all federal, state and local government web resources and services.